Location: Bella Coola
(52.3721°N, 126.7539°W)
Time: 06:30:55
(UTC-07:00)

ISS - Pass Details

Date: 25 May 2019
Orbit: 408 x 418 km, 51.6° (Epoch: 25 June)

Event Time Altitude Azimuth Distance (km) Brightness Sun altitude
Rises 00:26:44 0° 280° (W) 2,363 0.4 -15.7°
Reaches altitude 10° 00:28:52 10° 275° (W) 1,500 -0.7 -15.7°
Maximum altitude 00:32:08 50° 200° (SSW) 544 -3.6 -15.8°
Enters shadow 00:32:54 40° 155° (SSE) 636 -3.4 -15.9°
